Regional Weather Roundup
Issued by NWS Northern Indiana

Home | Current Version | Previous Version | Text Only | Print | Product List | Glossary Off
Versions: 1 2 3 4 5 6 7 8 9 10 11 12 13 14 15 16 17 18 19 20 21 22 23 24 25 26 27 28 29 30 31 32 33 34 35 36 37 38 39 40 41 42 43 44 45 46 47 48 49 50

000
ASUS43 KIWX 201610
RWRIWX

KIWX WEATHER ROUNDUP
NATIONAL WEATHER SERVICE NORTHERN INDIANA
1100 AM EST MON NOV 20 2017

NOTE: "FAIR" INDICATES FEW OR NO CLOUDS BELOW 12,000 FEET WITH NO
SIGNIFICANT WEATHER AND/OR OBSTRUCTIONS TO VISIBILITY.

* THESE STATIONS ARE NOT UNDER NWS QUALITY CONTROL. THEY ALSO MAY NOT
  REPORT WEATHER SUCH AS PRECIPITATION OR FOG.

INZ001>027-201700-
NORTHERN INDIANA

CITY           SKY/WX    TMP DP  RH WIND       PRES   REMARKS
GARY*          MOSUNNY   43  25  49 SW12G23   29.95F
VALPARAISO     SUNNY     43  28  55 S21       29.97F
MICHIGAN CITY* SUNNY     41  28  60 S16G22    29.96F
LAPORTE*       SUNNY     39  28  63 S15G23    29.97F
KNOX*          SUNNY     41  28  60 SW17G25   29.99F
SOUTH BEND     SUNNY     40  27  59 SW22G31   29.98F
ELKHART*       SUNNY     39  25  56 MISG      29.98F
GOSHEN         SUNNY     41  24  51 SW21G32   29.99F
MONTICELLO*    SUNNY     40  25  55 S17       30.03F
LOGANSPORT*    CLOUDY    37  28  70 S17G23    30.06S
ROCHESTER*     SUNNY     43  28  56 SW13G22   30.03F
WARSAW*        SUNNY     41  27  56 SW8G17    30.02F
AUBURN*        SUNNY     41  25  52 S12G20    30.04F
FORT WAYNE     MOSUNNY   41  27  57 SW20G28   30.07F
HUNTINGTON*    SUNNY     40  24  52 SW13G18   30.06F
PERU/GRISSOM   SUNNY     40  27  59 SW21      30.04F
MARION*        SUNNY     36  26  68 S16G23    30.08F

$$
INZ028>050-201700-
CENTRAL INDIANA

CITY           SKY/WX    TMP DP  RH WIND       PRES   REMARKS
LAFAYETTE      CLOUDY    40  27  59 S9G20     30.06F
KOKOMO*        CLOUDY    40  25  55 S17       30.07F
MUNCIE*        SUNNY     40  24  53 S13G23    30.10F
INDIANAPOLIS   PTSUNNY   40  24  53 S15       30.14F

$$
MIZ043>046-050>051-056>058-064>065-071>073-077>080-201700-
SOUTHWEST LOWER MICHIGAN

CITY           SKY/WX    TMP DP  RH WIND       PRES   REMARKS
BATTLE CREEK   CLOUDY    40  27  59 SW16G24   29.96S
BENTON HARBOR  SUNNY     43  26  51 S12G21    29.94F
COLDWATER*     SUNNY     41  24  51 SW13G18   29.98S
HILLSDALE*     SUNNY     39  25  56 S13G20    29.98S
HOLLAND        SUNNY     42  32  67 S18       29.92S
GRAND RAPIDS   MOSUNNY   39  29  67 SW16G22   29.92F
KALAMAZOO      SUNNY     41  25  53 SW15G22   29.96F
STURGIS*       SUNNY     39  27  60 SW17      29.98S
THREE RIVERS*  FAIR      41  27  56 SW15G24   29.97F

$$
OHZ001>008-015>018-024>025-201700-
NORTHWEST OHIO

CITY           SKY/WX    TMP DP  RH WIND       PRES   REMARKS
WAUSEON*       FAIR      39  27  60 SW20      30.04S
DEFIANCE       SUNNY     39  24  55 SW18G28   30.06F
FINDLAY        SUNNY     38  26  62 S17       30.09F
TOLEDO EXPRESS SUNNY     40  26  57 S15G22    30.05F
TOLEDO METCALF SUNNY     39  25  57 SW22G29   30.07F
LIMA           SUNNY     36  27  69 S13       30.10F

$$
AND FOR LAKE MICHIGAN COASTAL AND OPEN LAKE BUOY OBSERVATIONS

STATION/POSITION TEMP    WIND        PRES    VSBY  WAVE
                 AIR SEA DIR/SP/G                  HT/PER
                 (F)     (DEG/KT/KT) (MB)    (MI)  (FT/S)
CALUMET HARBOR    41     200/ 16/ 18 1012.8F
MICHIGAN CITY     40     180/ 19/ 25   N/A
BURNS HARBOR      42     190/ 15/ 22 1014.6F
SAINT JOSEPH      42     200/ 14/ 24 1014.6
SOUTH LAKE BUOY   43 49  240/ 21/ 27 1012.2          7/ 6

$$
&&




USA.gov is the U.S. government's official web portal to all federal, state and local government web resources and services.